TimeCST,TemperatureF,Dew PointF,Humidity,Sea Level PressureIn,VisibilityMPH,Wind Direction,Wind SpeedMPH,Gust SpeedMPH,PrecipitationIn,Events,Conditions,WindDirDegrees,DateUTC
12:56 AM,48.9,43.0,80,30.19,10.0,West,3.5,-,N/A,,Clear,280,2013-03-09 06:56:00
1:56 AM,45.0,42.1,90,30.18,9.0,Calm,Calm,-,N/A,,Clear,0,2013-03-09 07:56:00
2:56 AM,46.0,42.1,86,30.16,10.0,Calm,Calm,-,N/A,,Clear,0,2013-03-09 08:56:00
3:56 AM,48.9,43.0,80,30.13,10.0,ENE,4.6,-,N/A,,Clear,70,2013-03-09 09:56:00
4:56 AM,50.0,42.1,74,30.14,10.0,East,4.6,-,N/A,,Clear,90,2013-03-09 10:56:00
5:56 AM,46.9,42.1,83,30.16,8.0,Calm,Calm,-,N/A,,Scattered Clouds,0,2013-03-09 11:56:00
6:56 AM,48.0,44.1,86,30.19,4.0,Calm,Calm,-,N/A,,Mostly Cloudy,0,2013-03-09 12:56:00
7:56 AM,55.9,43.0,62,30.19,7.0,East,6.9,-,N/A,,Mostly Cloudy,100,2013-03-09 13:56:00
8:56 AM,63.0,41.0,45,30.21,8.0,ESE,10.4,-,N/A,,Mostly Cloudy,120,2013-03-09 14:56:00
9:56 AM,66.9,43.0,42,30.20,10.0,SE,11.5,-,N/A,,Mostly Cloudy,130,2013-03-09 15:56:00
10:56 AM,69.1,42.1,38,30.21,8.0,SE,11.5,-,N/A,,Mostly Cloudy,140,2013-03-09 16:56:00
11:56 AM,70.0,42.1,36,30.19,7.0,SSE,15.0,-,N/A,,Mostly Cloudy,150,2013-03-09 17:56:00
12:56 PM,70.0,39.0,32,30.18,9.0,SSE,12.7,20.7,N/A,,Mostly Cloudy,160,2013-03-09 18:56:00
1:56 PM,66.9,45.0,45,30.17,10.0,SSE,17.3,24.2,N/A,,Mostly Cloudy,150,2013-03-09 19:56:00
2:56 PM,66.0,51.1,59,30.15,10.0,SSE,15.0,-,N/A,,Partly Cloudy,150,2013-03-09 20:56:00
3:56 PM,64.9,53.1,65,30.14,10.0,SE,15.0,-,N/A,,Scattered Clouds,130,2013-03-09 21:56:00
4:56 PM,63.0,55.0,75,30.13,10.0,SE,12.7,-,N/A,,Partly Cloudy,130,2013-03-09 22:56:00
5:49 PM,62.6,55.4,77,30.12,10.0,ESE,12.7,23.0,N/A,,Mostly Cloudy,120,2013-03-09 23:49:00
5:56 PM,62.1,55.0,78,30.12,10.0,ESE,13.8,-,N/A,,Overcast,120,2013-03-09 23:56:00
6:56 PM,60.1,54.0,80,30.11,10.0,ESE,16.1,25.3,N/A,,Mostly Cloudy,120,2013-03-10 00:56:00
7:03 PM,60.8,53.6,77,30.10,10.0,ESE,16.1,25.3,N/A,,Scattered Clouds,120,2013-03-10 01:03:00
7:56 PM,59.0,53.1,81,30.10,10.0,SE,13.8,-,N/A,,Partly Cloudy,130,2013-03-10 01:56:00
8:56 PM,57.9,54.0,87,30.10,9.0,SE,13.8,-,N/A,,Partly Cloudy,130,2013-03-10 02:56:00
9:56 PM,57.9,55.0,90,30.09,9.0,SE,13.8,-,N/A,,Partly Cloudy,130,2013-03-10 03:56:00
10:56 PM,59.0,55.0,87,30.07,8.0,SE,11.5,-,N/A,,Scattered Clouds,140,2013-03-10 04:56:00
11:03 PM,59.0,55.4,88,30.07,8.0,SE,9.2,-,N/A,,Mostly Cloudy,140,2013-03-10 05:03:00
11:56 PM,59.0,55.9,90,30.05,9.0,SE,12.7,-,N/A,,Mostly Cloudy,130,2013-03-10 05:56:00